Location: Bush Observatory
(40.2653°N, 94.3194°W)
Time: 18:56:39
(UTC-05:00)

Vanguard 1 - Visible Passes

Search period start: 22 October 2014 00:00
Search period end: 01 November 2014 00:00
Orbit: 652 x 3835 km, 34.2° (Epoch: 19 October)

Date Brightness Start Highest point End Pass type
(mag) Time Alt. Az. Time Alt. Az. Time Alt. Az.
28 Oct 12.6 06:36:16 10° S 06:39:37 13° SSE 06:42:23 10° SE visible
29 Oct 12.2 06:56:06 10° SSW 07:01:10 19° SSE 07:04:59 10° ESE visible
30 Oct 11.8 07:16:43 10° SW 07:22:41 25° SSE 07:26:56 10° ESE visible
31 Oct 12.8 05:18:36 10° S 05:23:25 15° SSE 05:27:12 10° SE visible
